SCP
1 0 0 0 0 0 0 0 0 0 0 0 0 0 0 0 0 0 1 1 1 2 3 4 3 3 3 3 2 2 2 2 2 2 2 1 1 1 1 2 2 1 1 1 1 1 1 2 2
0 0 0 0 0 0 0 0 0 0 0 0 0 0 0 1 0 1 1 1 1 2 3 4 3 3 3 3 2 2 2 2 2 2 2 1 1 1 1 1 2 1 1 1 1 1 1 1 2
0 0 0 0 0 0 0 0 0 0 0 0 0 0 0 1 1 1 1 2 2 2 3 4 3 3 3 3 3 2 2 2 2 2 2 2 1 1 1 1 1 1 1 1 1 1 1 1 1
0 0 0 0 0 0 0 0 0 0 0 0 0 0 0 1 1 1 1 2 2 2 3 3 3 2 2 2 2 2 2 2 2 2 2 2 1 1 1 1 1 1 1 1 1 1 1 1 0
0 0 0 0 0 0 0 0 0 0 0 0 0 0 1 1 1 1 2 2 2 3 3 3 2 2 2 2 2 2 2 2 2 2 2 2 2 1 2 2 2 1 1 1 1 1 1 0 0
0 0 0 0 0 0 0 0 0 0 0 0 0 1 1 1 1 1 2 2 3 4 5 4 3 2 2 2 2 3 3 3 3 3 2 2 2 2 2 2 2 2 1 1 1 1 1 1 0
0 0 0 0 0 0 0 0 0 0 0 0 0 1 1 1 1 1 1 2 3 5 6 6 4 3 2 2 3 3 3 4 3 3 3 2 2 2 2 2 2 2 1 1 1 1 1 1 0
0 0 0 0 0 0 0 0 0 0 0 0 0 0 1 1 1 1 1 2 3 5 6 6 5 4 3 3 3 3 3 3 3 3 2 2 2 1 1 2 2 1 1 1 1 1 1 1 0
0 0 0 0 0 0 0 0 0 0 0 0 0 0 1 1 1 2 2 2 3 4 5 5 5 4 4 3 3 3 3 2 2 2 1 1 1 1 1 1 1 1 1 1 1 1 1 0 0
0 0 0 0 0 0 0 0 0 0 0 0 0 0 1 1 1 2 2 2 3 4 4 4 4 4 4 4 3 3 2 2 2 1 1 1 2 1 1 1 1 1 0 0 1 1 1 0 0
0 0 0 0 0 0 0 0 0 0 0 0 0 0 1 1 1 2 2 2 3 4 4 4 4 3 3 3 3 3 3 2 1 1 1 2 2 2 1 1 1 0 0 0 0 0 0 0 0
0 0 0 0 0 0 0 0 0 0 0 0 0 0 1 1 1 2 2 2 3 3 4 4 4 3 3 3 3 3 2 2 1 1 1 2 2 2 1 1 1 0 0 0 0 0 0 0 0
0 0 0 0 0 0 0 0 0 0 0 0 0 1 1 1 1 2 2 2 2 3 3 3 3 3 2 2 2 2 1 1 1 1 1 2 2 2 1 1 1 0 0 0 0 0 0 0 0
0 0 0 0 0 0 0 0 0 0 0 0 0 1 1 1 1 1 1 1 2 2 3 3 3 2 2 2 2 1 1 1 1 0 0 1 2 2 1 1 1 0 0 0 0 0 0 0 0
0 0 0 0 0 0 0 0 0 0 0 0 1 1 1 1 1 1 1 1 1 2 2 3 3 2 2 2 2 1 1 1 1 0 0 0 1 1 1 1 1 0 0 0 0 0 0 0 0
0 0 0 0 0 0 0 0 0 0 0 0 1 1 1 1 1 1 1 1 1 1 1 2 3 3 2 2 2 2 1 1 1 1 0 0 0 1 1 1 1 1 0 0 0 0 0 0 0
0 0 0 0 0 0 0 0 0 0 0 0 1 1 1 1 1 1 1 1 1 1 1 2 3 3 2 2 2 2 1 1 1 1 0 0 0 0 1 1 1 1 0 0 0 0 0 0 0
0 0 0 0 0 0 0 0 0 0 0 0 1 1 1 2 2 1 1 1 1 0 1 1 2 3 2 2 2 2 1 1 1 1 0 0 0 0 0 1 1 1 0 0 0 0 0 0 0
0 0 0 0 0 0 0 0 0 0 0 0 1 1 2 1 1 1 1 1 0 0 0 1 2 2 2 2 2 2 1 1 1 1 1 0 0 0 0 0 0 1 0 0 0 0 0 0 0
0 0 0 0 0 0 0 0 0 0 0 0 1 1 1 1 0 0 0 0 0 0 0 1 1 1 2 2 2 2 1 1 1 1 1 0 0 0 0 0 0 0 0 0 0 0 0 0 0
0 0 0 0 0 0 0 0 0 0 0 0 0 1 1 0 0 0 0 0 0 0 0 1 1 1 1 2 2 2 1 1 1 1 0 0 0 0 0 0 0 0 0 0 0 0 0 0 0
0 0 0 0 0 0 0 0 0 0 0 0 0 0 0 0 0 0 0 0 0 0 0 1 1 1 1 1 1 1 1 1 0 0 0 0 0 0 0 0 0 0 0 0 0 0 0 0 0
0 0 0 0 0 0 0 0 0 0 0 0 0 0 0 0 0 0 0 0 0 0 0 0 1 1 1 1 1 1 1 1 0 0 0 0 0 0 0 0 0 0 0 0 0 0 0 0 0
0 0 0 0 0 0 0 0 0 0 0 0 0 0 0 0 0 0 0 0 0 0 0 0 1 1 1 1 1 1 1 1 0 0 0 0 0 0 0 0 0 0 0 0 0 0 0 0 0
0 0 0 0 0 0 0 0 0 0 0 0 0 0 0 0 0 0 0 0 0 0 0 0 0 1 1 1 1 1 1 0 0 0 0 0 0 0 0 0 0 0 0 0 0 0 0 0 0
0 0 0 0 0 0 0 0 0 0 0 0 0 0 0 0 0 0 0 0 0 0 0 0 0 0 0 0 1 1 0 0 0 0 0 0 0 0 0 0 0 0 0 0 0 0 0 0 0
0 0 0 0 0 0 0 0 0 0 0 0 0 0 0 0 0 0 0 0 0 0 0 0 0 0 0 0 0 0 0 0 0 0 0 0 0 0 0 0 0 0 0 0 0 0 0 0 0
0 0 0 0 0 0 0 0 0 0 0 0 0 0 0 0 0 0 0 0 0 0 0 0 0 0 0 0 0 0 0 0 0 0 0 0 0 0 0 0 0 0 0 0 0 0 0 0 0
0 0 0 0 0 0 0 0 0 0 0 0 0 0 0 0 0 0 0 0 0 0 0 0 0 0 0 0 0 0 0 0 0 0 0 0 0 0 0 0 0 0 0 0 0 0 0 0 0
0 0 0 0 0 0 0 0 0 0 0 0 0 0 0 0 0 0 0 0 0 0 0 0 0 0 0 0 0 0 0 0 0 0 0 0 0 0 0 0 0 0 0 0 0 0 0 0 0
Wind_Speed
7 3 2 4 6 5 2 4 2 1 1 0 1 3 5 4 3 2 1 1 2 3 3 5 7 7 8 7 7 8 8 8 8 8 9 9 9 9 9 9 10 10 11 11 11 11 11 11 11
2 2 5 6 5 1 4 3 2 2 1 1 2 3 3 1 1 1 1 1 2 3 3 4 7 7 8 8 7 7 7 7 8 8 8 8 8 8 8 9 9 9 10 10 10 10 11 11 10
1 3 5 5 4 5 4 2 2 1 0 1 2 2 2 1 1 0 1 0 3 3 2 4 7 8 8 8 7 7 7 7 7 7 7 7 8 8 8 8 8 9 9 9 9 9 10 10 9
3 5 6 5 2 4 3 2 1 1 2 3 2 2 1 2 1 1 1 2 4 3 2 3 7 8 8 7 7 7 7 7 7 7 7 7 7 7 8 8 8 8 9 8 8 9 9 9 9
5 5 4 1 3 3 3 3 1 1 1 2 2 2 1 3 2 3 4 4 4 3 2 3 6 7 7 7 7 7 7 7 7 7 7 7 7 7 7 8 8 8 8 8 8 9 8 8 8
5 5 4 3 3 3 3 2 1 1 1 1 2 2 0 2 3 3 4 4 4 4 3 3 4 6 6 6 6 6 6 6 6 7 6 7 7 7 7 7 7 8 8 8 8 8 8 8 8
5 4 3 3 2 3 3 1 1 1 1 0 1 3 1 1 1 3 4 4 4 4 4 3 3 3 5 5 5 5 6 6 6 6 6 6 6 7 7 7 7 7 7 7 7 7 7 8 8
4 5 2 2 3 3 2 1 1 1 1 1 1 3 2 1 2 4 5 4 4 4 4 3 3 3 3 3 5 5 5 6 5 5 6 6 6 6 7 6 6 6 6 6 6 6 7 7 7
3 4 3 4 5 3 1 1 2 2 2 2 1 0 0 4 4 5 4 3 3 3 2 2 3 3 3 3 4 4 4 5 5 4 6 5 3 3 4 5 6 6 5 5 5 6 7 7 7
4 3 5 3 3 2 1 1 1 2 2 2 2 3 3 4 4 5 4 3 2 1 0 1 2 2 2 2 3 2 3 3 3 3 3 3 3 3 3 5 6 6 5 5 5 5 6 5 3
3 3 2 1 0 1 1 1 1 2 1 2 2 1 2 3 3 4 3 3 3 2 1 1 1 1 2 2 2 2 2 2 2 3 3 3 3 2 2 2 2 3 4 3 4 4 3 2 2
2 1 1 1 1 1 1 1 1 0 2 2 2 3 3 3 4 4 3 2 1 1 1 1 1 1 1 2 2 2 2 2 2 2 3 3 2 2 2 2 1 2 2 2 2 2 2 2 2
1 1 1 1 2 1 1 0 0 2 3 2 2 2 2 3 2 2 1 2 2 2 1 1 1 1 1 2 2 2 2 1 2 2 2 3 2 2 2 1 1 1 1 1 1 1 2 2 2
1 1 1 2 1 1 1 1 0 4 2 2 2 1 2 2 2 1 1 1 2 2 2 1 2 2 2 2 2 2 2 2 2 2 2 2 2 2 2 2 1 1 1 1 1 1 1 1 1
1 1 2 2 1 1 1 3 3 3 1 1 1 1 1 0 1 2 2 2 2 2 1 2 2 2 2 2 2 2 2 2 2 1 2 2 2 2 2 2 1 1 1 1 1 1 1 1 1
2 2 2 3 1 1 1 6 3 1 0 2 2 1 1 1 1 1 1 1 1 1 1 1 2 3 2 2 2 2 2 2 2 1 1 2 2 2 2 2 1 1 1 1 1 1 1 1 1
2 0 3 4 1 1 2 6 4 2 1 3 3 2 2 2 2 1 1 1 1 1 2 2 2 3 2 3 2 3 2 2 2 2 1 1 2 2 2 2 1 1 1 1 1 1 1 1 1
3 2 2 3 2 1 3 8 6 2 2 4 4 3 3 2 3 2 1 1 1 1 2 2 2 2 3 3 2 2 3 2 2 2 1 1 1 2 2 1 1 2 2 1 1 1 1 1 0
3 3 3 4 2 1 6 9 8 4 3 4 4 4 4 4 3 1 1 2 2 2 2 2 2 2 2 1 1 1 1 1 1 1 1 1 1 1 2 2 2 1 1 1 1 1 2 1 1
2 2 3 3 1 2 5 10 8 5 5 6 6 6 5 3 2 2 2 1 1 1 1 1 2 1 1 1 1 1 1 1 0 1 2 2 1 1 2 2 1 1 1 2 1 1 1 1 1
2 4 4 3 3 2 3 8 5 4 3 3 5 5 4 4 4 2 1 1 0 0 1 1 1 1 1 1 2 2 2 1 1 1 1 1 1 1 2 2 1 1 1 1 1 1 2 1 0
4 3 3 2 0 3 0 6 8 4 3 4 5 4 4 4 3 3 2 1 1 1 1 0 1 1 1 2 3 3 2 1 1 0 0 1 1 1 2 1 1 1 1 0 0 1 1 2 1
3 1 1 1 2 2 2 4 10 2 4 6 5 5 4 4 3 3 3 3 2 1 1 1 1 1 1 2 2 2 2 1 1 1 1 1 2 2 1 1 1 1 0 0 0 1 1 1 2
3 3 3 3 2 4 5 5 9 4 6 4 3 4 4 3 2 2 1 1 0 1 1 1 2 1 1 2 2 2 2 2 1 1 1 1 1 1 2 1 1 1 0 0 1 1 1 1 1
3 4 3 4 2 7 3 5 11 6 4 4 4 4 3 2 2 2 1 1 0 1 1 1 2 1 1 2 1 2 2 2 2 1 1 0 0 1 1 1 0 0 0 0 0 1 1 1 1
4 5 6 5 5 5 3 8 9 5 2 2 3 2 2 2 2 2 2 2 2 1 1 1 1 1 1 1 1 1 1 1 1 1 1 1 1 1 1 0 0 1 1 1 1 1 0 1 1
4 3 3 4 1 4 7 7 9 3 3 2 2 1 1 2 2 2 2 2 2 1 1 2 1 1 0 0 0 1 0 1 1 1 1 0 0 1 0 0 0 0 1 1 1 1 0 0 0
2 5 4 4 3 5 6 6 6 5 4 3 2 3 3 2 2 2 2 2 1 1 1 1 1 1 1 1 0 0 0 0 1 1 1 1 0 1 0 0 0 0 0 0 1 0 0 0 0
4 3 3 3 3 4 5 8 5 5 5 5 5 4 4 3 3 2 2 1 1 1 1 1 1 1 1 1 0 0 0 0 1 1 1 1 0 0 0 0 0 0 0 0 1 0 1 0 0
3 5 6 5 5 4 4 11 4 4 4 4 5 4 3 3 2 2 2 1 1 1 1 0 1 1 1 1 1 1 0 1 1 0 0 1 1 0 0 0 0 0 0 0 0 0 1 1 1
Wind_Direction
341 354 58 57 56 53 234 251 235 289 244 13 98 121 136 143 160 190 333 102 100 139 167 169 155 147 138 129 124 123 117 114 114 114 112 108 104 101 98 95 91 89 88 87 86 84 83 80 79
331 8 53 60 90 118 262 253 234 241 200 115 59 81 90 88 20 52 7 332 111 137 151 155 149 145 137 131 124 125 123 119 114 113 114 112 108 105 101 98 95 92 88 86 84 83 83 81 80
357 47 78 79 118 181 225 238 224 306 4 104 78 57 100 90 8 232 294 128 100 111 118 137 140 141 138 134 130 127 130 123 116 113 112 112 109 106 104 100 99 96 92 88 85 83 82 80 78
64 47 56 81 189 223 230 272 296 351 27 45 99 82 67 18 302 251 101 102 104 97 96 128 133 139 137 136 133 129 133 131 124 116 112 112 110 108 105 100 98 96 94 93 89 85 81 79 79
60 75 70 61 242 262 270 284 304 25 26 21 84 109 37 359 24 86 100 98 104 88 82 122 128 131 137 139 135 131 128 132 128 121 114 112 112 110 107 103 99 95 93 91 87 84 82 79 77
61 71 101 209 244 274 283 299 343 51 44 36 78 112 46 11 58 81 92 93 93 93 80 86 114 120 121 125 129 130 124 127 131 127 120 113 110 109 106 106 101 98 95 92 87 84 82 77 74
102 104 158 189 217 268 284 326 104 124 89 266 147 117 318 350 47 81 86 87 81 80 76 70 71 88 104 111 107 115 118 115 118 120 114 106 103 106 105 102 98 98 97 92 87 84 82 77 74
116 109 138 190 193 244 295 1 51 73 183 357 103 138 209 235 103 89 84 80 78 70 69 68 62 67 78 87 96 95 111 111 103 101 104 99 96 94 93 92 93 93 95 97 90 84 82 77 72
83 87 189 205 192 229 337 27 1 5 94 44 22 19 250 121 113 102 94 81 76 65 52 63 72 69 77 88 84 86 94 101 97 88 92 91 84 82 79 79 87 89 89 94 94 87 83 78 69
83 147 217 209 186 185 352 38 355 43 36 22 8 18 77 113 127 131 137 149 156 158 107 67 84 82 83 94 86 75 76 81 92 96 93 89 86 81 78 71 73 74 72 72 80 78 74 70 62
108 177 214 263 188 153 104 26 13 115 309 244 243 234 134 132 143 154 163 165 180 181 168 112 108 95 100 102 98 84 75 75 75 92 98 94 87 79 70 69 58 58 57 54 59 59 57 62 62
115 245 225 276 8 74 119 71 22 150 242 282 222 173 156 162 176 182 181 182 159 145 164 162 118 108 97 107 108 100 89 84 86 84 108 109 107 99 95 84 69 66 57 62 59 59 57 56 51
155 243 346 15 47 65 81 67 228 278 291 346 74 114 164 183 191 194 177 172 162 170 183 158 125 130 122 113 116 105 101 97 95 90 93 117 129 128 114 102 85 78 72 78 76 68 61 49 37
162 140 320 337 6 24 95 295 225 268 322 14 67 161 199 181 179 159 153 195 196 192 189 160 127 118 111 114 115 112 103 97 86 80 75 99 125 124 118 110 101 88 82 88 95 92 86 60 49
107 57 350 331 341 323 49 306 244 259 342 329 299 243 192 208 159 193 210 205 204 195 171 151 138 114 113 108 99 94 91 97 93 82 76 85 95 124 129 126 114 98 95 97 89 76 80 71 56
60 70 288 307 331 331 113 264 268 286 262 285 283 291 303 299 248 249 263 253 201 151 137 142 128 119 116 106 97 88 78 84 80 73 72 79 81 105 123 120 119 108 103 106 111 94 80 58 44
40 219 248 297 325 17 186 258 282 311 235 259 267 271 280 312 324 314 274 246 179 155 141 126 110 116 116 107 97 89 85 77 72 66 65 70 88 88 103 109 110 109 99 91 101 87 106 97 48
213 213 235 258 296 322 257 266 285 291 244 247 255 261 262 266 280 302 346 14 62 75 100 108 97 98 104 102 91 80 71 62 59 65 54 61 79 92 94 100 88 97 93 75 74 99 73 94 88
176 183 233 255 279 260 257 271 277 271 257 255 250 248 250 259 291 351 21 34 52 55 72 92 99 97 111 115 122 113 98 58 44 48 48 55 72 100 110 89 79 92 115 120 108 96 79 49 41
169 218 250 283 296 252 278 277 270 248 234 234 230 234 237 257 310 344 6 27 48 73 75 98 120 124 130 140 151 137 138 125 105 45 45 44 65 87 101 100 103 97 105 99 98 101 99 51 42
221 213 224 248 323 326 312 293 267 257 237 247 236 228 226 219 228 248 273 279 258 170 185 164 156 142 128 106 104 91 79 63 51 28 20 15 38 72 76 93 109 88 87 135 144 147 143 162 342
243 227 212 212 238 286 316 288 283 264 275 259 247 235 231 234 227 228 233 263 248 239 221 149 143 133 128 123 129 134 146 169 198 195 2 11 32 55 78 90 99 93 85 72 196 152 155 159 185
210 173 177 184 183 292 245 241 279 293 270 260 244 237 238 230 220 221 225 227 232 218 169 148 107 105 110 117 133 129 133 156 130 93 77 37 21 25 49 74 93 89 80 27 258 158 157 172 181
151 76 50 54 80 260 227 207 273 240 230 256 258 246 243 237 230 229 233 189 157 78 98 111 110 102 98 106 112 128 139 141 123 102 93 39 15 17 28 37 49 76 69 351 268 197 172 180 177
114 96 30 350 335 250 221 225 253 249 233 235 255 265 260 236 213 210 209 170 149 115 123 120 120 107 102 103 111 132 156 158 165 172 172 147 7 344 339 5 352 20 4 344 332 185 181 178 168
181 152 163 204 235 277 246 237 254 259 264 264 266 261 275 256 219 210 208 199 199 196 178 154 139 147 126 118 130 125 148 159 170 166 167 189 220 259 287 253 312 9 19 22 31 351 223 160 183
152 184 163 135 196 275 260 275 294 263 276 300 309 315 289 270 244 227 219 209 197 191 188 174 154 145 132 121 90 99 148 155 148 130 128 107 352 308 319 191 44 6 29 32 55 10 268 142 185
157 145 111 136 191 259 277 265 254 258 260 280 290 289 286 290 271 247 220 210 208 190 151 128 148 159 142 113 131 98 185 148 138 126 120 95 32 11 345 82 120 47 63 74 97 20 330 138 236
148 155 149 152 181 198 269 268 236 230 233 240 254 262 267 269 257 237 225 212 178 143 122 119 122 128 123 130 147 117 62 90 95 115 134 133 101 28 345 26 134 111 81 88 108 35 359 231 285
190 187 162 177 224 206 234 270 279 243 255 256 267 272 276 270 251 223 205 191 181 177 158 159 176 190 208 181 150 158 140 107 96 82 69 112 106 41 353 73 103 90 57 48 146 252 344 282 238